Regional Weather Roundup
Issued by NWS

Home | Current Version | Previous Version | Text Only | Print | Product List | Glossary Off
Versions: 1 2 3 4 5 6 7 8 9 10 11 12 13 14 15 16 17 18 19 20 21 22 23 24 25 26 27 28 29 30 31 32 33 34 35 36 37 38 39 40 41 42 43 44 45 46 47 48 49 50

000
ASUS45 KCYS 281410
RWRWY

WYOMING REGIONAL WEATHER ROUNDUP
NATIONAL WEATHER SERVICE CHEYENNE WY
800 AM MDT TUE JUL 28 2015

NOTE:  "FAIR" INDICATES FEW OR NO CLOUDS BELOW 12,000 FEET
WITH NO SIGNIFICANT WEATHER AND/OR OBSTRUCTIONS TO VISIBILITY.

WYZ001-281500-
YELLOWSTONE NATIONAL PARK

CITY           SKY/WX    TMP DP  RH WIND       PRES   REMARKS
LK YELLOWSTONE   N/A     35  32  88 CALM      30.34R
W YELLOWSTONE  NOT AVBL

$$
WYZ002>013-054>058-071-098>099-281500-
NORTHERN WYOMING

CITY           SKY/WX    TMP DP  RH WIND       PRES   REMARKS
JACKSON        FAIR      39  36  87 CALM      30.33R
CODY           FAIR      55  30  38 W16G28    30.15S
GREYBULL       FAIR      53  44  71 SE3       30.12R
WORLAND        FAIR      54  41  61 S3        30.13R
SHERIDAN       FAIR      54  45  71 S3        30.06R
BUFFALO        FAIR      52  44  74 SE5       30.09R
GILLETTE       FAIR      56  43  61 W10       30.06R
HULETT         FAIR      55  41  58 W13G18    30.04R
NEWCASTLE      FAIR      54  41  62 NW8       30.08R

$$
WYZ014>020-022>026-101>103-281500-
CENTRAL WYOMING

CITY           SKY/WX    TMP DP  RH WIND       PRES   REMARKS
BIG PINEY      FAIR      40  28  62 CALM      30.33R
PINEDALE       FAIR      39  32  75 NW9       30.33R WCI  33
DUBOIS         FAIR      43  30  61 NW17G24   30.27R
LANDER         FAIR      50  26  39 N6        30.19R
RIVERTON       FAIR      54  29  38 W21       30.20R
CASPER         FAIR      57  28  33 W20       30.16R
DOUGLAS        FAIR      59  32  36 NW15      30.14R

$$
WYZ021-027>030-104>119-281500-
SOUTHERN WYOMING

CITY           SKY/WX    TMP DP  RH WIND       PRES   REMARKS
EVANSTON       FAIR      44  32  62 SW7       30.35R
KEMMERER       FAIR      45  27  49 W6        30.34R
FORT BRIDGER   SUNNY     50  32  50 W9        30.36R
ROCK SPRINGS   FAIR      52  25  35 W17       30.31R
DIXON          FAIR      49  33  54 E6        30.34R
RAWLINS        FAIR      52  25  35 W13G23    30.28R
SARATOGA       FAIR      54  27  35 W8        30.31S
LARAMIE        FAIR      53  32  44 S5        30.24S
CHEYENNE       FAIR      59  34  39 W13       30.19R
TORRINGTON     FAIR      63  40  42 NW3       30.09R HAZE
PINE BLUFFS    FAIR      64  30  27 NW30G38   30.12S

$$


USA.gov is the U.S. government's official web portal to all federal, state and local government web resources and services.